Location: Alafon
(8.4500°N, 4.2333°E)
Time: 17:51:08
(UTC+00:00)

Transit 2A - Pass Details

Date: 05 August 2021
Orbit: 595 x 964 km, 66.7° (Epoch: 18 September)

Event Time Altitude Azimuth Distance (km) Brightness Sun altitude
Rises 04:29:39 0° 230° (SW) 2,851 - -16.2°
Reaches altitude 10° 04:32:30 10° 249° (WSW) 1,927 - -15.5°
Exits shadow 04:35:13 18° 288° (WNW) 1,474 7.0 -14.9°
Maximum altitude 04:35:26 18° 292° (WNW) 1,471 7.1 -14.8°
Drops below altitude 10° 04:38:23 10° 336° (NNW) 1,928 8.1 -14.2°
Sets 04:41:15 0° 356° (N) 2,853 9.2 -13.5°
